<?xml version="1.0"?>
<gpx xmlns="http://www.topografix.com/GPX/1/1" xmlns:xsi="http://www.w3.org/2001/XMLSchema-instance" version="1.1" creator="GPX RubyGem 1.0.0 -- http://dougfales.github.io/gpx/" xsi:schemaLocation="http://www.topografix.com/GPX/1/1 http://www.topografix.com/GPX/1/1/gpx.xsd">
  <metadata>
    <name/>
    <time>2026-05-07T20:55:51+00:00</time>
    <bound minlat="90.0" minlon="180.0" maxlat="-90.0" maxlon="-180.0"/>
  </metadata>
  <trk>
    <name/>
    <trkseg>
      <trkpt lat="45.524327" lon="7.201227">
        <time>1970-01-01T00:00:00+00:00</time>
        <ele>1956.0</ele>
      </trkpt>
      <trkpt lat="45.524529" lon="7.201375">
        <time>1970-01-01T00:00:00+00:00</time>
        <ele>1954.0</ele>
      </trkpt>
      <trkpt lat="45.52441" lon="7.202588">
        <time>1970-01-01T00:00:00+00:00</time>
        <ele>1954.0</ele>
      </trkpt>
      <trkpt lat="45.521658" lon="7.202932">
        <time>1970-01-01T00:00:00+00:00</time>
        <ele>1965.0</ele>
      </trkpt>
      <trkpt lat="45.518921" lon="7.205015">
        <time>1970-01-01T00:00:00+00:00</time>
        <ele>1983.0</ele>
      </trkpt>
      <trkpt lat="45.516616" lon="7.205599">
        <time>1970-01-01T00:00:00+00:00</time>
        <ele>1987.0</ele>
      </trkpt>
      <trkpt lat="45.515846" lon="7.20683">
        <time>1970-01-01T00:00:00+00:00</time>
        <ele>2013.0</ele>
      </trkpt>
      <trkpt lat="45.514698" lon="7.206939">
        <time>1970-01-01T00:00:00+00:00</time>
        <ele>2007.0</ele>
      </trkpt>
      <trkpt lat="45.514054" lon="7.207609">
        <time>1970-01-01T00:00:00+00:00</time>
        <ele>2028.0</ele>
      </trkpt>
      <trkpt lat="45.514986" lon="7.208098">
        <time>1970-01-01T00:00:00+00:00</time>
        <ele>2051.0</ele>
      </trkpt>
      <trkpt lat="45.514005" lon="7.208762">
        <time>1970-01-01T00:00:00+00:00</time>
        <ele>2090.0</ele>
      </trkpt>
      <trkpt lat="45.514586" lon="7.208823">
        <time>1970-01-01T00:00:00+00:00</time>
        <ele>2090.0</ele>
      </trkpt>
      <trkpt lat="45.514421" lon="7.208999">
        <time>1970-01-01T00:00:00+00:00</time>
        <ele>2104.0</ele>
      </trkpt>
      <trkpt lat="45.51474" lon="7.209261">
        <time>1970-01-01T00:00:00+00:00</time>
        <ele>2112.0</ele>
      </trkpt>
      <trkpt lat="45.514532" lon="7.209655">
        <time>1970-01-01T00:00:00+00:00</time>
        <ele>2143.0</ele>
      </trkpt>
      <trkpt lat="45.515054" lon="7.20978">
        <time>1970-01-01T00:00:00+00:00</time>
        <ele>2138.0</ele>
      </trkpt>
      <trkpt lat="45.514928" lon="7.210124">
        <time>1970-01-01T00:00:00+00:00</time>
        <ele>2162.0</ele>
      </trkpt>
      <trkpt lat="45.515204" lon="7.210839">
        <time>1970-01-01T00:00:00+00:00</time>
        <ele>2181.0</ele>
      </trkpt>
      <trkpt lat="45.51481" lon="7.210994">
        <time>1970-01-01T00:00:00+00:00</time>
        <ele>2202.0</ele>
      </trkpt>
      <trkpt lat="45.514566" lon="7.21067">
        <time>1970-01-01T00:00:00+00:00</time>
        <ele>2197.0</ele>
      </trkpt>
      <trkpt lat="45.513711" lon="7.211094">
        <time>1970-01-01T00:00:00+00:00</time>
        <ele>2212.0</ele>
      </trkpt>
      <trkpt lat="45.513607" lon="7.211398">
        <time>1970-01-01T00:00:00+00:00</time>
        <ele>2228.0</ele>
      </trkpt>
      <trkpt lat="45.51398" lon="7.21279">
        <time>1970-01-01T00:00:00+00:00</time>
        <ele>2304.0</ele>
      </trkpt>
      <trkpt lat="45.514368" lon="7.213185">
        <time>1970-01-01T00:00:00+00:00</time>
        <ele>2324.0</ele>
      </trkpt>
      <trkpt lat="45.514068" lon="7.213234">
        <time>1970-01-01T00:00:00+00:00</time>
        <ele>2328.0</ele>
      </trkpt>
      <trkpt lat="45.51416" lon="7.213509">
        <time>1970-01-01T00:00:00+00:00</time>
        <ele>2336.0</ele>
      </trkpt>
      <trkpt lat="45.513939" lon="7.213594">
        <time>1970-01-01T00:00:00+00:00</time>
        <ele>2336.0</ele>
      </trkpt>
      <trkpt lat="45.514216" lon="7.214409">
        <time>1970-01-01T00:00:00+00:00</time>
        <ele>2355.0</ele>
      </trkpt>
      <trkpt lat="45.514203" lon="7.215234">
        <time>1970-01-01T00:00:00+00:00</time>
        <ele>2376.0</ele>
      </trkpt>
      <trkpt lat="45.513931" lon="7.215943">
        <time>1970-01-01T00:00:00+00:00</time>
        <ele>2390.0</ele>
      </trkpt>
      <trkpt lat="45.513507" lon="7.216333">
        <time>1970-01-01T00:00:00+00:00</time>
        <ele>2397.0</ele>
      </trkpt>
      <trkpt lat="45.513471" lon="7.216688">
        <time>1970-01-01T00:00:00+00:00</time>
        <ele>2405.0</ele>
      </trkpt>
      <trkpt lat="45.513876" lon="7.216599">
        <time>1970-01-01T00:00:00+00:00</time>
        <ele>2417.0</ele>
      </trkpt>
      <trkpt lat="45.513304" lon="7.218179">
        <time>1970-01-01T00:00:00+00:00</time>
        <ele>2447.0</ele>
      </trkpt>
      <trkpt lat="45.513922" lon="7.217685">
        <time>1970-01-01T00:00:00+00:00</time>
        <ele>2462.0</ele>
      </trkpt>
      <trkpt lat="45.513143" lon="7.219986">
        <time>1970-01-01T00:00:00+00:00</time>
        <ele>2485.0</ele>
      </trkpt>
      <trkpt lat="45.51325" lon="7.220428">
        <time>1970-01-01T00:00:00+00:00</time>
        <ele>2501.0</ele>
      </trkpt>
      <trkpt lat="45.512905" lon="7.220979">
        <time>1970-01-01T00:00:00+00:00</time>
        <ele>2518.0</ele>
      </trkpt>
      <trkpt lat="45.513113" lon="7.221209">
        <time>1970-01-01T00:00:00+00:00</time>
        <ele>2529.0</ele>
      </trkpt>
      <trkpt lat="45.512863" lon="7.2214">
        <time>1970-01-01T00:00:00+00:00</time>
        <ele>2539.0</ele>
      </trkpt>
      <trkpt lat="45.512583" lon="7.222468">
        <time>1970-01-01T00:00:00+00:00</time>
        <ele>2569.0</ele>
      </trkpt>
      <trkpt lat="45.512759" lon="7.223362">
        <time>1970-01-01T00:00:00+00:00</time>
        <ele>2589.0</ele>
      </trkpt>
      <trkpt lat="45.511927" lon="7.225298">
        <time>1970-01-01T00:00:00+00:00</time>
        <ele>2606.0</ele>
      </trkpt>
      <trkpt lat="45.509843" lon="7.225878">
        <time>1970-01-01T00:00:00+00:00</time>
        <ele>2661.0</ele>
      </trkpt>
      <trkpt lat="45.507563" lon="7.227559">
        <time>1970-01-01T00:00:00+00:00</time>
        <ele>2732.0</ele>
      </trkpt>
      <trkpt lat="45.506761" lon="7.227773">
        <time>1970-01-01T00:00:00+00:00</time>
        <ele>2751.0</ele>
      </trkpt>
      <trkpt lat="45.505506" lon="7.228632">
        <time>1970-01-01T00:00:00+00:00</time>
        <ele>2783.0</ele>
      </trkpt>
      <trkpt lat="45.50412" lon="7.229967">
        <time>1970-01-01T00:00:00+00:00</time>
        <ele>2808.0</ele>
      </trkpt>
      <trkpt lat="45.502451" lon="7.230706">
        <time>1970-01-01T00:00:00+00:00</time>
        <ele>2841.0</ele>
      </trkpt>
      <trkpt lat="45.501684" lon="7.231531">
        <time>1970-01-01T00:00:00+00:00</time>
        <ele>2860.0</ele>
      </trkpt>
      <trkpt lat="45.501227" lon="7.231676">
        <time>1970-01-01T00:00:00+00:00</time>
        <ele>2874.0</ele>
      </trkpt>
      <trkpt lat="45.500917" lon="7.231325">
        <time>1970-01-01T00:00:00+00:00</time>
        <ele>2874.0</ele>
      </trkpt>
      <trkpt lat="45.498833" lon="7.235577">
        <time>1970-01-01T00:00:00+00:00</time>
        <ele>2933.0</ele>
      </trkpt>
      <trkpt lat="45.497836" lon="7.235794">
        <time>1970-01-01T00:00:00+00:00</time>
        <ele>2926.0</ele>
      </trkpt>
      <trkpt lat="45.496421" lon="7.235667">
        <time>1970-01-01T00:00:00+00:00</time>
        <ele>2926.0</ele>
      </trkpt>
      <trkpt lat="45.493709" lon="7.2365">
        <time>1970-01-01T00:00:00+00:00</time>
        <ele>2986.0</ele>
      </trkpt>
      <trkpt lat="45.489611" lon="7.236795">
        <time>1970-01-01T00:00:00+00:00</time>
        <ele>3103.0</ele>
      </trkpt>
      <trkpt lat="45.489002" lon="7.236068">
        <time>1970-01-01T00:00:00+00:00</time>
        <ele>3127.0</ele>
      </trkpt>
      <trkpt lat="45.488605" lon="7.236091">
        <time>1970-01-01T00:00:00+00:00</time>
        <ele>3148.0</ele>
      </trkpt>
      <trkpt lat="45.488349" lon="7.235566">
        <time>1970-01-01T00:00:00+00:00</time>
        <ele>3157.0</ele>
      </trkpt>
      <trkpt lat="45.487044" lon="7.235633">
        <time>1970-01-01T00:00:00+00:00</time>
        <ele>3285.0</ele>
      </trkpt>
      <trkpt lat="45.486795" lon="7.235128">
        <time>1970-01-01T00:00:00+00:00</time>
        <ele>3305.0</ele>
      </trkpt>
      <trkpt lat="45.486049" lon="7.23498">
        <time>1970-01-01T00:00:00+00:00</time>
        <ele>3391.0</ele>
      </trkpt>
      <trkpt lat="45.486196" lon="7.234798">
        <time>1970-01-01T00:00:00+00:00</time>
        <ele>3373.0</ele>
      </trkpt>
      <trkpt lat="45.485762" lon="7.234385">
        <time>1970-01-01T00:00:00+00:00</time>
        <ele>3375.0</ele>
      </trkpt>
      <trkpt lat="45.485038" lon="7.234775">
        <time>1970-01-01T00:00:00+00:00</time>
        <ele>3399.0</ele>
      </trkpt>
      <trkpt lat="45.485224" lon="7.235135">
        <time>1970-01-01T00:00:00+00:00</time>
        <ele>3409.0</ele>
      </trkpt>
      <trkpt lat="45.485012" lon="7.235455">
        <time>1970-01-01T00:00:00+00:00</time>
        <ele>3419.0</ele>
      </trkpt>
      <trkpt lat="45.485229" lon="7.235115">
        <time>1970-01-01T00:00:00+00:00</time>
        <ele>3408.0</ele>
      </trkpt>
      <trkpt lat="45.485032" lon="7.234808">
        <time>1970-01-01T00:00:00+00:00</time>
        <ele>3401.0</ele>
      </trkpt>
      <trkpt lat="45.485706" lon="7.234293">
        <time>1970-01-01T00:00:00+00:00</time>
        <ele>3368.0</ele>
      </trkpt>
      <trkpt lat="45.48612" lon="7.234695">
        <time>1970-01-01T00:00:00+00:00</time>
        <ele>3376.0</ele>
      </trkpt>
      <trkpt lat="45.486591" lon="7.234516">
        <time>1970-01-01T00:00:00+00:00</time>
        <ele>3326.0</ele>
      </trkpt>
      <trkpt lat="45.486987" lon="7.234697">
        <time>1970-01-01T00:00:00+00:00</time>
        <ele>3277.0</ele>
      </trkpt>
      <trkpt lat="45.487038" lon="7.235119">
        <time>1970-01-01T00:00:00+00:00</time>
        <ele>3275.0</ele>
      </trkpt>
      <trkpt lat="45.486842" lon="7.235212">
        <time>1970-01-01T00:00:00+00:00</time>
        <ele>3299.0</ele>
      </trkpt>
      <trkpt lat="45.487338" lon="7.235384">
        <time>1970-01-01T00:00:00+00:00</time>
        <ele>3239.0</ele>
      </trkpt>
      <trkpt lat="45.487545" lon="7.236358">
        <time>1970-01-01T00:00:00+00:00</time>
        <ele>3232.0</ele>
      </trkpt>
      <trkpt lat="45.48809" lon="7.237311">
        <time>1970-01-01T00:00:00+00:00</time>
        <ele>3212.0</ele>
      </trkpt>
      <trkpt lat="45.488749" lon="7.236797">
        <time>1970-01-01T00:00:00+00:00</time>
        <ele>3152.0</ele>
      </trkpt>
      <trkpt lat="45.49014" lon="7.236758">
        <time>1970-01-01T00:00:00+00:00</time>
        <ele>3078.0</ele>
      </trkpt>
      <trkpt lat="45.49134" lon="7.237464">
        <time>1970-01-01T00:00:00+00:00</time>
        <ele>3070.0</ele>
      </trkpt>
      <trkpt lat="45.491411" lon="7.23711">
        <time>1970-01-01T00:00:00+00:00</time>
        <ele>3060.0</ele>
      </trkpt>
      <trkpt lat="45.493071" lon="7.237028">
        <time>1970-01-01T00:00:00+00:00</time>
        <ele>3015.0</ele>
      </trkpt>
      <trkpt lat="45.494614" lon="7.235904">
        <time>1970-01-01T00:00:00+00:00</time>
        <ele>2959.0</ele>
      </trkpt>
      <trkpt lat="45.495813" lon="7.236377">
        <time>1970-01-01T00:00:00+00:00</time>
        <ele>2959.0</ele>
      </trkpt>
      <trkpt lat="45.497203" lon="7.236322">
        <time>1970-01-01T00:00:00+00:00</time>
        <ele>2937.0</ele>
      </trkpt>
      <trkpt lat="45.498505" lon="7.235457">
        <time>1970-01-01T00:00:00+00:00</time>
        <ele>2924.0</ele>
      </trkpt>
      <trkpt lat="45.499723" lon="7.236104">
        <time>1970-01-01T00:00:00+00:00</time>
        <ele>2923.0</ele>
      </trkpt>
      <trkpt lat="45.502125" lon="7.236212">
        <time>1970-01-01T00:00:00+00:00</time>
        <ele>2896.0</ele>
      </trkpt>
      <trkpt lat="45.504401" lon="7.23581">
        <time>1970-01-01T00:00:00+00:00</time>
        <ele>2874.0</ele>
      </trkpt>
      <trkpt lat="45.504823" lon="7.236197">
        <time>1970-01-01T00:00:00+00:00</time>
        <ele>2862.0</ele>
      </trkpt>
      <trkpt lat="45.506078" lon="7.236652">
        <time>1970-01-01T00:00:00+00:00</time>
        <ele>2843.0</ele>
      </trkpt>
      <trkpt lat="45.506601" lon="7.236519">
        <time>1970-01-01T00:00:00+00:00</time>
        <ele>2829.0</ele>
      </trkpt>
      <trkpt lat="45.507442" lon="7.236956">
        <time>1970-01-01T00:00:00+00:00</time>
        <ele>2806.0</ele>
      </trkpt>
      <trkpt lat="45.50829" lon="7.236193">
        <time>1970-01-01T00:00:00+00:00</time>
        <ele>2799.0</ele>
      </trkpt>
      <trkpt lat="45.509105" lon="7.234244">
        <time>1970-01-01T00:00:00+00:00</time>
        <ele>2783.0</ele>
      </trkpt>
      <trkpt lat="45.510267" lon="7.232521">
        <time>1970-01-01T00:00:00+00:00</time>
        <ele>2759.0</ele>
      </trkpt>
      <trkpt lat="45.510606" lon="7.231555">
        <time>1970-01-01T00:00:00+00:00</time>
        <ele>2735.0</ele>
      </trkpt>
      <trkpt lat="45.511318" lon="7.231164">
        <time>1970-01-01T00:00:00+00:00</time>
        <ele>2729.0</ele>
      </trkpt>
      <trkpt lat="45.51223" lon="7.229487">
        <time>1970-01-01T00:00:00+00:00</time>
        <ele>2709.0</ele>
      </trkpt>
      <trkpt lat="45.512539" lon="7.229739">
        <time>1970-01-01T00:00:00+00:00</time>
        <ele>2717.0</ele>
      </trkpt>
      <trkpt lat="45.512645" lon="7.229509">
        <time>1970-01-01T00:00:00+00:00</time>
        <ele>2716.0</ele>
      </trkpt>
    </trkseg>
  </trk>
</gpx>
